Current weather by "City, St" or "zip code"  
 

Current Conditions: Bloomington, Monroe County Airport, IN

Fair


65.0 F

Last Updated on Sep 18 2020, 11:53 am EDT
Humidity: 45%
Wind Speed: NE 8.1 G 23.0 mph
Barometer 30.27 in
Dewpoint: 43.0 F
Visibility: 10.00 mi
Precip: --
Heat Index: NA
Wind Chill: NA
Current conditions at:

Bloomington, Monroe County Airport, IN (KBMG)

Lat: 39.14306 Lon: 86.61667

Local Radar Image active severe weather and emergency alerts image image weather storm and storm spotter reports image weather observation monitoring service image
Local
Radar
Active
Alerts
Storm Reports Obs
Monitoring

Sign-up For Email & Text Message Weather Alert Notification Services



Advertise Here

Observation History for Bloomington, Monroe County Airport, IN


Time Wind
(mph)
Vis
(mi)
Weather Precip (in) Temperature (F) Relative
Humidity
Wind
Chill
(F)
Heat
Index
(F)
Pressure
Air Dwpt altimeter
(in)
sea level
(mb)
Rmks
11:53 am EDT NE 8.1 G 23.0 10.00 Fair -- 65.0 43.0 45% NA NA 30.27 1024.7
10:53 am EDT NE 11.5 10.00 Fair -- 62.0 46.0 56% 61 NA 30.26 1024.5
9:53 am EDT NE 11.5 10.00 Fair -- 59.0 46.9 64% 57 NA 30.23 1023.5
8:53 am EDT NE 9.2 10.00 Fair -- 56.0 46.9 72% 54 NA 30.21 1022.7
7:53 am EDT NE 9.2 10.00 Fair -- 54.0 46.9 77% 51 NA 30.18 1021.8
6:53 am EDT NE 8.1 10.00 Fair -- 54.0 46.9 77% 52 NA 30.16 1020.8
5:53 am EDT N 8.1 10.00 Fair -- 54.0 48.9 83% 52 NA 30.14 1020.1
4:53 am EDT N 5.8 10.00 Fair -- 54.0 48.9 83% 53 NA 30.12 1019.4
3:53 am EDT N 6.9 10.00 Fair -- 55.0 50.0 83% 53 NA 30.11 1019.0
2:53 am EDT N 6.9 10.00 Fair -- 56.0 51.1 84% 54 NA 30.11 1019.0
1:53 am EDT N 6.9 10.00 Fair -- 57.0 51.1 81% 56 NA 30.10 1018.6
12:53 am EDT N 5.8 10.00 Fair -- 60.0 51.1 72% 60 NA 30.10 1018.6
11:53 pm EDT NE 8.1 10.00 Fair -- 63.0 53.1 70% 63 NA 30.08 1018.1
10:53 pm EDT NE 8.1 10.00 Fair -- 65.0 55.9 73% NA NA 30.07 1017.7
9:53 pm EDT N 10.4 10.00 Mostly Cloudy -- 67.0 57.0 71% NA NA 30.06 1017.3
8:53 pm EDT N 10.4 10.00 Overcast -- 70.0 57.9 66% NA NA 30.03 1016.6
7:53 pm EDT N 12.7 10.00 Fair -- 72.0 57.9 61% NA NA 30.01 1015.8
6:53 pm EDT N 10.4 10.00 Fair -- 76.0 59.0 56% NA NA 29.99 1015.2
5:53 pm EDT N 12.7 G 23.0 10.00 A Few Clouds -- 80.0 60.1 51% NA 81 29.98 1014.6
4:53 pm EDT 5.8 10.00 Fair -- 82.0 57.0 43% NA 82 29.97 1014.4
3:53 pm EDT E 8.1 10.00 Fair -- 83.0 55.9 40% NA 82 29.98 1014.7
2:53 pm EDT NE 5.8 10.00 Fair -- 83.0 55.0 38% NA 82 30.00 1015.2
1:53 pm EDT SE 3.5 10.00 Fair -- 81.0 54.0 39% NA 81 30.01 1015.9
12:53 pm EDT 5.8 10.00 Fair -- 80.0 55.0 42% NA 80 30.02 1016.2

Regional Weather Observation


Indianapolis International Airport, IN (KIND)

Partly Cloudy
62.0 F

Terre Haute Regional Airport, IN (KHUF)

Fair
65.0 F

Indianapolis, Eagle Creek Airpark, IN (KEYE)

Fair
60.0 F

Robinson Municipal Airport, IL (KRSV)

Fair
65.0 F

Edgar County Airport, IL (KPRG)

Fair
65.0 F

Columbus / Bakalar, IN (KBAK)

Clear
63.0 F